• In Hungary
  • List of Countries
  • For 7 days
  • Water Temperature
  • Satellite Maps
  • Weather Map
  • News
  • Weather Widgets
  • user-avatar
    Login

    Hourly Weather Santa Cruz

    Today, 24 October, Tuesday

    Time Temperature Precipitation Wind Pressure Humidity
    00:00 +25°C° 0.9 mm 1 mps 734 mmHg 93%
    01:00 +25°C° 0.1 mm 1 mps 734 mmHg 93%
    02:00 +25°C° 0.1 mm 1 mps 734 mmHg 94%
    03:00 +23°C° 0.1 mm 0 mps 734 mmHg 94%
    04:00 +25°C° 0.1 mm 1 mps 734 mmHg 94%
    05:00 +25°C° 0.1 mm 1 mps 734 mmHg 94%
    06:00 +25°C° 0.1 mm 1 mps 734 mmHg 94%
    07:00 +26°C° 0.7 mm 1 mps 735 mmHg 90%
    08:00 +27°C° 0.7 mm 1 mps 735 mmHg 86%
    09:00 +29°C° 0.7 mm 1 mps 736 mmHg 81%
    10:00 +29°C° 1.7 mm 1 mps 735 mmHg 81%
    11:00 +29°C° 1.7 mm 2 mps 735 mmHg 81%
    12:00 +29°C° 1.7 mm 2 mps 734 mmHg 81%
    13:00 +29°C° 1.6 mm 2 mps 734 mmHg 83%
    14:00 +29°C° 1.6 mm 3 mps 733 mmHg 84%
    15:00 +28°C° 1.6 mm 3 mps 733 mmHg 86%
    16:00 +28°C° 1.5 mm 3 mps 733 mmHg 89%
    17:00 +27°C° 1.5 mm 3 mps 733 mmHg 91%
    18:00 +26°C° 1.5 mm 2 mps 734 mmHg 94%
    19:00 +26°C° 1.9 mm 2 mps 734 mmHg 94%
    20:00 +26°C° 1.9 mm 2 mps 735 mmHg 94%
    21:00 +25°C° 1.9 mm 2 mps 735 mmHg 94%
    22:00 +25°C° 2.9 mm 2 mps 735 mmHg 94%
    23:00 +25°C° 2.9 mm 2 mps 735 mmHg 94%

    Tomorrow, 25 October, Wednesday

    Time Temperature Precipitation Wind Pressure Humidity
    00:00 +25°C° 2.9 mm 2 mps 735 mmHg 93%
    01:00 +25°C° 1.7 mm 2 mps 734 mmHg 94%
    02:00 +25°C° 1.7 mm 1 mps 734 mmHg 94%
    03:00 +25°C° 1.7 mm 1 mps 733 mmHg 94%
    04:00 +25°C° 0.8 mm 1 mps 734 mmHg 94%
    05:00 +25°C° 0.8 mm 1 mps 734 mmHg 94%
    06:00 +25°C° 0.8 mm 1 mps 734 mmHg 94%
    07:00 +26°C° 0.6 mm 1 mps 734 mmHg 91%
    08:00 +27°C° 0.6 mm 1 mps 735 mmHg 87%
    09:00 +28°C° 0.6 mm 1 mps 736 mmHg 84%
    10:00 +28°C° 1.8 mm 2 mps 735 mmHg 84%
    11:00 +29°C° 1.8 mm 2 mps 735 mmHg 85%
    12:00 +29°C° 1.8 mm 3 mps 734 mmHg 85%
    13:00 +28°C° 3.1 mm 2 mps 734 mmHg 87%
    14:00 +28°C° 3.1 mm 2 mps 733 mmHg 89%
    15:00 +27°C° 3.1 mm 2 mps 733 mmHg 91%
    16:00 +26°C° 3.3 mm 2 mps 733 mmHg 93%
    17:00 +26°C° 3.3 mm 2 mps 733 mmHg 94%
    18:00 +25°C° 3.3 mm 2 mps 734 mmHg 95%
    19:00 +25°C° 2.9 mm 2 mps 734 mmHg 96%
    20:00 +25°C° 2.9 mm 2 mps 735 mmHg 96%
    21:00 +25°C° 2.9 mm 3 mps 736 mmHg 96%
    22:00 +25°C° 2.7 mm 2 mps 735 mmHg 96%
    23:00 +24°C° 2.7 mm 2 mps 735 mmHg 97%

    Day after tomorrow, 26 October, Thursday

    Time Temperature Precipitation Wind Pressure Humidity
    00:00 +24°C° 2.7 mm 2 mps 735 mmHg 97%
    01:00 +24°C° 1.2 mm 2 mps 734 mmHg 96%
    02:00 +24°C° 1.2 mm 3 mps 734 mmHg 96%
    03:00 +24°C° 1.2 mm 3 mps 733 mmHg 95%
    04:00 +24°C° 0.7 mm 3 mps 734 mmHg 95%
    05:00 +24°C° 0.7 mm 3 mps 734 mmHg 94%
    06:00 +24°C° 0.7 mm 3 mps 734 mmHg 94%
    07:00 +25°C° 0.5 mm 3 mps 735 mmHg 93%
    08:00 +25°C° 0.5 mm 4 mps 736 mmHg 91%
    09:00 +26°C° 0.5 mm 5 mps 736 mmHg 89%
    10:00 +25°C° 1 mm 5 mps 736 mmHg 90%
    11:00 +25°C° 1 mm 5 mps 735 mmHg 90%
    12:00 +24°C° 1 mm 6 mps 735 mmHg 91%
    13:00 +24°C° 4.1 mm 6 mps 734 mmHg 91%
    14:00 +24°C° 4.1 mm 7 mps 734 mmHg 91%
    15:00 +23°C° 4.1 mm 7 mps 733 mmHg 92%
    16:00 +23°C° 0.8 mm 7 mps 734 mmHg 92%
    17:00 +23°C° 0.8 mm 7 mps 734 mmHg 92%
    18:00 +23°C° 0.8 mm 7 mps 735 mmHg 92%
    19:00 +22°C° 0.3 mm 7 mps 735 mmHg 92%
    20:00 +22°C° 0.3 mm 6 mps 736 mmHg 92%
    21:00 +22°C° 0.3 mm 6 mps 736 mmHg 92%
    22:00 +22°C° 0.2 mm 5 mps 736 mmHg 92%
    23:00 +21°C° 0.2 mm 5 mps 736 mmHg 92%

    27 October, Friday

    Time Temperature Precipitation Wind Pressure Humidity
    00:00 +21°C° 0.2 mm 4 mps 735 mmHg 91%
    01:00 +21°C° 0 mm 4 mps 735 mmHg 90%
    02:00 +21°C° 0 mm 4 mps 735 mmHg 88%
    03:00 +21°C° 0 mm 3 mps 734 mmHg 87%
    04:00 +21°C° 0 mm 3 mps 735 mmHg 86%
    05:00 +21°C° 0 mm 3 mps 735 mmHg 85%
    06:00 +21°C° 0 mm 3 mps 736 mmHg 85%
    07:00 +24°C° 0 mm 3 mps 736 mmHg 82%
    08:00 +25°C° 0 mm 3 mps 737 mmHg 79%
    09:00 +26°C° 0 mm 3 mps 737 mmHg 75%
    10:00 +27°C° 0 mm 4 mps 737 mmHg 74%
    11:00 +28°C° 0 mm 4 mps 736 mmHg 72%
    12:00 +29°C° 0 mm 5 mps 736 mmHg 71%
    13:00 +29°C° 0.1 mm 5 mps 736 mmHg 73%
    14:00 +28°C° 0.1 mm 5 mps 735 mmHg 75%
    15:00 +28°C° 0.1 mm 5 mps 735 mmHg 78%
    16:00 +27°C° 0.1 mm 4 mps 735 mmHg 81%
    17:00 +26°C° 0.1 mm 4 mps 736 mmHg 85%
    18:00 +23°C° 0.1 mm 4 mps 736 mmHg 89%
    19:00 +24°C° 0.1 mm 3 mps 737 mmHg 89%
    20:00 +24°C° 0.1 mm 3 mps 737 mmHg 88%
    21:00 +24°C° 0.1 mm 3 mps 738 mmHg 88%
    22:00 +24°C° 0 mm 3 mps 737 mmHg 88%
    23:00 +24°C° 0 mm 2 mps 737 mmHg 88%

    28 October, Saturday

    Time Temperature Precipitation Wind Pressure Humidity
    00:00 +23°C° 0 mm 2 mps 737 mmHg 88%
    01:00 +23°C° 0 mm 2 mps 736 mmHg 88%
    02:00 +23°C° 0 mm 2 mps 736 mmHg 88%
    03:00 +23°C° 0 mm 2 mps 735 mmHg 88%
    04:00 +23°C° 0 mm 2 mps 736 mmHg 88%
    05:00 +23°C° 0 mm 2 mps 736 mmHg 87%
    06:00 +23°C° 0 mm 2 mps 736 mmHg 87%
    07:00 +25°C° 0 mm 2 mps 737 mmHg 81%
    08:00 +26°C° 0 mm 2 mps 737 mmHg 75%
    09:00 +28°C° 0 mm 2 mps 738 mmHg 69%
    10:00 +29°C° 0 mm 2 mps 737 mmHg 66%
    11:00 +29°C° 0 mm 2 mps 737 mmHg 63%
    12:00 +30°C° 0 mm 2 mps 736 mmHg 59%
    13:00 +30°C° 0 mm 2 mps 736 mmHg 62%
    14:00 +30°C° 0 mm 2 mps 735 mmHg 66%
    15:00 +29°C° 0 mm 2 mps 735 mmHg 69%
    16:00 +28°C° 0 mm 2 mps 736 mmHg 72%
    17:00 +27°C° 0 mm 1 mps 736 mmHg 75%
    18:00 +26°C° 0 mm 1 mps 737 mmHg 78%
    19:00 +25°C° 0 mm 1 mps 737 mmHg 80%
    20:00 +25°C° 0 mm 1 mps 737 mmHg 82%
    21:00 +24°C° 0 mm 1 mps 738 mmHg 84%
    22:00 +24°C° 0 mm 1 mps 737 mmHg 85%
    23:00 +24°C° 0 mm 1 mps 737 mmHg 85%

    29 October, Sunday

    Time Temperature Precipitation Wind Pressure Humidity
    00:00 +24°C° 0 mm 1 mps 736 mmHg 85%
    01:00 +24°C° 0 mm 1 mps 736 mmHg 86%
    02:00 +23°C° 0 mm 1 mps 736 mmHg 87%
    03:00 +23°C° 0 mm 1 mps 736 mmHg 87%
    04:00 +23°C° 0 mm 1 mps 736 mmHg 88%
    05:00 +23°C° 0 mm 1 mps 737 mmHg 88%
    06:00 +23°C° 0 mm 1 mps 737 mmHg 89%
    07:00 +25°C° 0 mm 1 mps 737 mmHg 83%
    08:00 +27°C° 0 mm 1 mps 738 mmHg 77%
    09:00 +29°C° 0 mm 1 mps 738 mmHg 72%
    10:00 +30°C° 0 mm 1 mps 737 mmHg 70%
    11:00 +30°C° 0 mm 2 mps 737 mmHg 68%
    12:00 +31°C° 0 mm 2 mps 736 mmHg 66%
    13:00 +31°C° 0 mm 2 mps 736 mmHg 69%
    14:00 +30°C° 0 mm 2 mps 735 mmHg 72%
    15:00 +30°C° 0 mm 3 mps 735 mmHg 76%
    16:00 +28°C° 0 mm 2 mps 735 mmHg 80%
    17:00 +27°C° 0 mm 2 mps 735 mmHg 85%
    18:00 +26°C° 0 mm 2 mps 736 mmHg 89%
    19:00 +26°C° 0 mm 2 mps 736 mmHg 90%
    20:00 +25°C° 0 mm 2 mps 737 mmHg 91%
    21:00 +25°C° 0 mm 2 mps 737 mmHg 92%
    22:00 +25°C° 0 mm 1 mps 737 mmHg 93%
    23:00 +25°C° 0 mm 1 mps 736 mmHg 93%

    30 October, Monday

    Time Temperature Precipitation Wind Pressure Humidity
    00:00 +24°C° 0 mm 1 mps 736 mmHg 94%
    01:00 +24°C° 0.1 mm 1 mps 736 mmHg 94%
    02:00 +24°C° 0.1 mm 1 mps 735 mmHg 94%
    03:00 +24°C° 0.1 mm 1 mps 735 mmHg 94%
    04:00 +24°C° 0.1 mm 1 mps 736 mmHg 94%
    05:00 +24°C° 0.1 mm 1 mps 736 mmHg 94%
    06:00 +24°C° 0.1 mm 1 mps 736 mmHg 93%
    07:00 +25°C° 0 mm 1 mps 737 mmHg 87%
    08:00 +27°C° 0 mm 2 mps 737 mmHg 81%
    09:00 +29°C° 0 mm 2 mps 737 mmHg 75%
    10:00 +30°C° 0 mm 2 mps 737 mmHg 72%
    11:00 +30°C° 0 mm 2 mps 736 mmHg 69%
    12:00 +31°C° 0 mm 2 mps 736 mmHg 67%
    13:00 +31°C° 0.6 mm 2 mps 735 mmHg 71%
    14:00 +30°C° 0.6 mm 3 mps 735 mmHg 74%
    15:00 +30°C° 0.6 mm 3 mps 734 mmHg 78%
    16:00 +28°C° 0.9 mm 3 mps 735 mmHg 82%
    17:00 +27°C° 0.9 mm 2 mps 735 mmHg 87%
    18:00 +26°C° 0.9 mm 2 mps 735 mmHg 91%
    19:00 +26°C° 0.5 mm 2 mps 735 mmHg 91%
    20:00 +25°C° 0.5 mm 2 mps 736 mmHg 92%
    21:00 +25°C° 0.5 mm 2 mps 736 mmHg 92%
    22:00 +25°C° 0.4 mm 2 mps 736 mmHg 92%
    23:00 +24°C° 0.4 mm 2 mps 736 mmHg 91%
    Show more